When you browse on this site, cookies collect data to enhance your experience and personalize the content and advertising you see.
Visit our Privacy Policy to learn more. By continuing to use the site, you agree to this use of cookies and data.
  • Em Portugal
  • Lista de países
  • Para 7 dias
  • Temperatura da água
  • Mapas de satélite
  • Mapa do tempo
  • Widgets de tempo
  • user-avatar
    Iniciar Sessão

    Previsão horária em Slomiana

    Hoje, 20 Maio, Segunda-feira

    Tempo Temperatura Precipitação Vento Pressão Humidade
    00:00 +16°C° 0 mm 3 m/s 739 mmHg 95%
    01:00 +16°C° 0 mm 3 m/s 739 mmHg 96%
    02:00 +16°C° 0 mm 3 m/s 739 mmHg 96%
    03:00 +16°C° 0 mm 3 m/s 738 mmHg 97%
    04:00 +15°C° 0 mm 4 m/s 738 mmHg 97%
    05:00 +17°C° 0 mm 4 m/s 738 mmHg 95%
    06:00 +17°C° 0 mm 5 m/s 738 mmHg 92%
    07:00 +19°C° 0 mm 5 m/s 738 mmHg 90%
    08:00 +20°C° 0 mm 5 m/s 738 mmHg 83%
    09:00 +22°C° 0 mm 4 m/s 738 mmHg 77%
    10:00 +25°C° 0 mm 4 m/s 738 mmHg 70%
    11:00 +25°C° 0.7 mm 4 m/s 738 mmHg 67%
    12:00 +26°C° 0.7 mm 4 m/s 738 mmHg 65%
    13:00 +26°C° 0.7 mm 4 m/s 738 mmHg 62%
    14:00 +25°C° 0.1 mm 4 m/s 738 mmHg 67%
    15:00 +23°C° 0.1 mm 4 m/s 738 mmHg 72%
    16:00 +22°C° 0.1 mm 4 m/s 738 mmHg 77%
    17:00 +21°C° 0 mm 4 m/s 738 mmHg 80%
    18:00 +20°C° 0 mm 3 m/s 738 mmHg 82%
    19:00 +19°C° 0 mm 3 m/s 738 mmHg 85%
    20:00 +18°C° 0 mm 3 m/s 738 mmHg 88%
    21:00 +17°C° 0 mm 3 m/s 738 mmHg 90%
    22:00 +16°C° 0 mm 2 m/s 738 mmHg 93%
    23:00 +16°C° 0 mm 2 m/s 738 mmHg 92%

    Amanhã, 21 Maio, Terça-feira

    Tempo Temperatura Precipitação Vento Pressão Humidade
    00:00 +16°C° 0 mm 2 m/s 738 mmHg 91%
    01:00 +15°C° 0 mm 2 m/s 738 mmHg 90%
    02:00 +15°C° 0.1 mm 2 m/s 738 mmHg 89%
    03:00 +15°C° 0.1 mm 2 m/s 738 mmHg 89%
    04:00 +16°C° 0.1 mm 2 m/s 738 mmHg 88%
    05:00 +16°C° 0.1 mm 1 m/s 738 mmHg 85%
    06:00 +18°C° 0.1 mm 1 m/s 738 mmHg 83%
    07:00 +18°C° 0.1 mm 1 m/s 737 mmHg 80%
    08:00 +19°C° 0 mm 1 m/s 737 mmHg 75%
    09:00 +21°C° 0 mm 1 m/s 737 mmHg 70%
    10:00 +22°C° 0 mm 1 m/s 737 mmHg 65%
    11:00 +20°C° 2.2 mm 1 m/s 737 mmHg 74%
    12:00 +18°C° 2.2 mm 2 m/s 737 mmHg 82%
    13:00 +17°C° 2.2 mm 2 m/s 736 mmHg 91%
    14:00 +17°C° 1.4 mm 3 m/s 736 mmHg 89%
    15:00 +17°C° 1.4 mm 4 m/s 736 mmHg 87%
    16:00 +17°C° 1.4 mm 5 m/s 736 mmHg 85%
    17:00 +16°C° 0.7 mm 6 m/s 736 mmHg 87%
    18:00 +15°C° 0.7 mm 6 m/s 736 mmHg 89%
    19:00 +14°C° 0.7 mm 7 m/s 736 mmHg 91%
    20:00 +14°C° 0.5 mm 6 m/s 737 mmHg 92%
    21:00 +14°C° 0.5 mm 6 m/s 737 mmHg 92%
    22:00 +14°C° 0.5 mm 5 m/s 737 mmHg 93%
    23:00 +13°C° 0 mm 5 m/s 737 mmHg 93%

    Depois de amanhã, 22 Maio, Quarta-feira

    Tempo Temperatura Precipitação Vento Pressão Humidade
    00:00 +13°C° 0 mm 4 m/s 737 mmHg 94%
    01:00 +13°C° 0 mm 4 m/s 737 mmHg 94%
    02:00 +12°C° 0 mm 4 m/s 737 mmHg 95%
    03:00 +12°C° 0 mm 4 m/s 738 mmHg 95%
    04:00 +12°C° 0 mm 3 m/s 738 mmHg 95%
    05:00 +13°C° 0 mm 4 m/s 738 mmHg 92%
    06:00 +13°C° 0 mm 4 m/s 738 mmHg 88%
    07:00 +14°C° 0 mm 4 m/s 738 mmHg 85%
    08:00 +15°C° 0 mm 5 m/s 738 mmHg 81%
    09:00 +16°C° 0 mm 5 m/s 738 mmHg 78%
    10:00 +17°C° 0 mm 5 m/s 739 mmHg 74%
    11:00 +17°C° 0 mm 5 m/s 739 mmHg 74%
    12:00 +17°C° 0 mm 5 m/s 739 mmHg 74%
    13:00 +17°C° 0 mm 5 m/s 738 mmHg 73%
    14:00 +17°C° 0.1 mm 5 m/s 738 mmHg 74%
    15:00 +19°C° 0.1 mm 4 m/s 738 mmHg 75%
    16:00 +19°C° 0.1 mm 4 m/s 738 mmHg 76%
    17:00 +18°C° 0.5 mm 3 m/s 738 mmHg 81%
    18:00 +17°C° 0.5 mm 3 m/s 738 mmHg 86%
    19:00 +16°C° 0.5 mm 3 m/s 738 mmHg 92%
    20:00 +14°C° 0.1 mm 3 m/s 738 mmHg 93%
    21:00 +14°C° 0.1 mm 3 m/s 738 mmHg 95%
    22:00 +13°C° 0.1 mm 3 m/s 738 mmHg 96%
    23:00 +13°C° 0 mm 3 m/s 738 mmHg 96%

    23 Maio, Quinta-feira

    Tempo Temperatura Precipitação Vento Pressão Humidade
    00:00 +13°C° 0 mm 3 m/s 738 mmHg 96%
    01:00 +13°C° 0 mm 3 m/s 738 mmHg 96%
    02:00 +14°C° 0.1 mm 2 m/s 738 mmHg 97%
    03:00 +14°C° 0.1 mm 2 m/s 738 mmHg 97%
    04:00 +14°C° 0.1 mm 2 m/s 738 mmHg 98%
    05:00 +15°C° 0.1 mm 2 m/s 739 mmHg 96%
    06:00 +15°C° 0.1 mm 2 m/s 739 mmHg 94%
    07:00 +16°C° 0.1 mm 2 m/s 739 mmHg 93%
    08:00 +16°C° 0.4 mm 3 m/s 740 mmHg 92%
    09:00 +16°C° 0.4 mm 3 m/s 740 mmHg 91%
    10:00 +17°C° 0.4 mm 3 m/s 740 mmHg 89%
    11:00 +18°C° 1.3 mm 4 m/s 740 mmHg 87%
    12:00 +17°C° 1.3 mm 5 m/s 740 mmHg 85%
    13:00 +19°C° 1.3 mm 6 m/s 741 mmHg 82%
    14:00 +17°C° 1.3 mm 6 m/s 741 mmHg 86%
    15:00 +15°C° 1.3 mm 7 m/s 741 mmHg 89%
    16:00 +14°C° 1.3 mm 7 m/s 741 mmHg 93%
    17:00 +12°C° 1.1 mm 7 m/s 741 mmHg 93%
    18:00 +12°C° 1.1 mm 7 m/s 742 mmHg 93%
    19:00 +11°C° 1.1 mm 7 m/s 742 mmHg 94%
    20:00 +11°C° 1.1 mm 7 m/s 742 mmHg 93%
    21:00 +11°C° 1.1 mm 6 m/s 743 mmHg 93%
    22:00 +10°C° 1.1 mm 6 m/s 743 mmHg 92%
    23:00 +10°C° 0.6 mm 6 m/s 743 mmHg 92%

    24 Maio, Sexta-feira

    Tempo Temperatura Precipitação Vento Pressão Humidade
    00:00 +9°C° 0.6 mm 5 m/s 743 mmHg 91%
    01:00 +8°C° 0.6 mm 5 m/s 743 mmHg 90%
    02:00 +8°C° 0.1 mm 4 m/s 743 mmHg 92%
    03:00 +8°C° 0.1 mm 4 m/s 743 mmHg 93%
    04:00 +7°C° 0.1 mm 4 m/s 744 mmHg 94%
    05:00 +8°C° 0 mm 4 m/s 744 mmHg 90%
    06:00 +9°C° 0 mm 5 m/s 744 mmHg 86%
    07:00 +10°C° 0 mm 5 m/s 744 mmHg 82%
    08:00 +13°C° 0 mm 5 m/s 744 mmHg 75%
    09:00 +14°C° 0 mm 5 m/s 744 mmHg 69%
    10:00 +16°C° 0 mm 5 m/s 744 mmHg 62%
    11:00 +16°C° 0 mm 5 m/s 744 mmHg 60%
    12:00 +17°C° 0 mm 5 m/s 743 mmHg 58%
    13:00 +19°C° 0 mm 4 m/s 743 mmHg 56%
    14:00 +19°C° 0 mm 4 m/s 743 mmHg 56%
    15:00 +19°C° 0 mm 4 m/s 743 mmHg 55%
    16:00 +19°C° 0 mm 4 m/s 742 mmHg 55%
    17:00 +18°C° 0 mm 3 m/s 742 mmHg 62%
    18:00 +16°C° 0 mm 2 m/s 742 mmHg 69%
    19:00 +15°C° 0 mm 1 m/s 742 mmHg 75%
    20:00 +14°C° 0 mm 1 m/s 742 mmHg 78%
    21:00 +13°C° 0 mm 1 m/s 742 mmHg 81%
    22:00 +12°C° 0 mm 1 m/s 742 mmHg 84%
    23:00 +12°C° 0 mm 1 m/s 742 mmHg 86%

    25 Maio, Sábado

    Tempo Temperatura Precipitação Vento Pressão Humidade
    00:00 +11°C° 0 mm 1 m/s 742 mmHg 88%
    01:00 +11°C° 0 mm 1 m/s 742 mmHg 89%
    02:00 +11°C° 0 mm 1 m/s 742 mmHg 90%
    03:00 +10°C° 0 mm 1 m/s 742 mmHg 91%
    04:00 +10°C° 0 mm 1 m/s 742 mmHg 92%
    05:00 +12°C° 0 mm 1 m/s 742 mmHg 86%
    06:00 +14°C° 0 mm 1 m/s 742 mmHg 79%
    07:00 +16°C° 0 mm 2 m/s 742 mmHg 73%
    08:00 +17°C° 0.1 mm 2 m/s 742 mmHg 68%
    09:00 +19°C° 0.1 mm 2 m/s 742 mmHg 63%
    10:00 +20°C° 0.1 mm 2 m/s 742 mmHg 58%
    11:00 +20°C° 0.1 mm 2 m/s 742 mmHg 57%
    12:00 +21°C° 0.1 mm 3 m/s 742 mmHg 55%
    13:00 +22°C° 0.1 mm 3 m/s 741 mmHg 54%
    14:00 +22°C° 0.1 mm 3 m/s 741 mmHg 55%
    15:00 +22°C° 0.1 mm 3 m/s 741 mmHg 55%
    16:00 +21°C° 0.1 mm 3 m/s 741 mmHg 56%
    17:00 +20°C° 0 mm 3 m/s 741 mmHg 63%
    18:00 +19°C° 0 mm 3 m/s 741 mmHg 69%
    19:00 +17°C° 0 mm 2 m/s 741 mmHg 75%
    20:00 +16°C° 0 mm 2 m/s 742 mmHg 79%
    21:00 +15°C° 0 mm 2 m/s 742 mmHg 83%
    22:00 +14°C° 0 mm 2 m/s 742 mmHg 87%
    23:00 +13°C° 0 mm 2 m/s 743 mmHg 89%
    Mostrar mais